Location: Ferchesar
(52.6477°N, 12.4298°E)
Time: 06:20:07
(UTC+02:00)

Transit 4A - Pass Details

Date: 01 March 2021
Orbit: 869 x 976 km, 66.8° (Epoch: 12 April)

Event Time Altitude Azimuth Distance (km) Brightness Sun altitude
Rises 13:39:42 0° 263° (W) 3,658 11.4 27.8°
Reaches altitude 10° 13:42:37 10° 274° (W) 2,702 10.6 27.6°
Maximum altitude 13:48:07 30° 335° (NNW) 1,628 9.1 27.3°
Drops below altitude 10° 13:53:31 10° 35° (NE) 2,650 9.8 26.9°
Sets 13:56:22 0° 47° (NE) 3,577 10.4 26.7°
